TimeEDT,TemperatureF,Dew PointF,Humidity,Sea Level PressureIn,VisibilityMPH,Wind Direction,Wind SpeedMPH,Gust SpeedMPH,PrecipitationIn,Events,Conditions,WindDirDegrees,DateUTC
12:24 AM,51.8,51.8,100,29.60,4.0,NW,11.5,20.7,0.11,Rain,Rain,310,2013-04-19 04:24:00
12:53 AM,48.0,46.9,96,29.57,4.0,NNW,10.4,16.1,0.19,Rain,Rain,330,2013-04-19 04:53:00
1:45 AM,46.4,44.6,93,29.60,2.5,WNW,9.2,-,0.19,Rain,Heavy Rain,300,2013-04-19 05:45:00
1:51 AM,46.4,44.6,93,29.60,3.0,WNW,9.2,-,0.22,Rain,Heavy Rain,290,2013-04-19 05:51:00
1:53 AM,46.0,45.0,96,29.60,3.0,WNW,8.1,-,0.22,Rain,Rain,290,2013-04-19 05:53:00
2:09 AM,44.6,44.6,100,29.61,4.0,NW,10.4,16.1,0.07,Rain,Rain,310,2013-04-19 06:09:00
2:23 AM,44.6,42.8,93,29.62,3.0,WNW,13.8,20.7,0.13,Rain,Heavy Rain,290,2013-04-19 06:23:00
2:53 AM,43.0,41.0,93,29.63,10.0,WNW,15.0,26.5,0.19,Rain,Light Rain,290,2013-04-19 06:53:00
3:17 AM,42.8,41.0,93,29.60,8.0,WNW,8.1,18.4,0.02,Rain,Light Rain,300,2013-04-19 07:17:00
3:34 AM,42.8,41.0,93,29.62,4.0,WNW,12.7,19.6,0.03,Rain,Light Rain,290,2013-04-19 07:34:00
3:41 AM,42.8,39.2,87,29.61,6.0,WNW,9.2,-,0.04,Rain,Light Rain,300,2013-04-19 07:41:00
3:48 AM,42.8,41.0,93,29.61,10.0,WNW,9.2,-,0.04,Rain,Light Rain,300,2013-04-19 07:48:00
3:53 AM,42.1,39.9,92,29.61,10.0,WNW,9.2,-,0.04,Rain,Light Rain,300,2013-04-19 07:53:00
4:53 AM,41.0,39.0,93,29.61,10.0,WNW,9.2,-,0.00,,Overcast,290,2013-04-19 08:53:00
5:29 AM,39.2,35.6,87,29.65,10.0,WNW,13.8,21.9,N/A,,Overcast,290,2013-04-19 09:29:00
5:53 AM,39.9,35.1,83,29.65,10.0,West,12.7,17.3,N/A,,Overcast,280,2013-04-19 09:53:00
6:53 AM,39.0,32.0,76,29.68,10.0,WNW,10.4,19.6,N/A,,Overcast,290,2013-04-19 10:53:00
7:53 AM,39.0,32.0,76,29.72,10.0,West,15.0,20.7,N/A,,Overcast,280,2013-04-19 11:53:00
8:53 AM,37.9,28.9,70,29.74,10.0,West,12.7,-,N/A,,Overcast,270,2013-04-19 12:53:00
9:53 AM,37.9,30.0,73,29.77,10.0,West,13.8,23.0,0.00,,Overcast,260,2013-04-19 13:53:00
10:53 AM,37.9,30.0,73,29.79,10.0,WSW,9.2,28.8,N/A,,Overcast,250,2013-04-19 14:53:00
11:13 AM,37.4,28.4,70,29.79,10.0,West,13.8,20.7,N/A,,Overcast,270,2013-04-19 15:13:00
11:53 AM,39.9,28.0,63,29.80,10.0,West,13.8,25.3,N/A,,Overcast,260,2013-04-19 15:53:00
12:53 PM,39.9,28.9,65,29.81,10.0,WSW,17.3,27.6,0.00,Rain,Light Rain,250,2013-04-19 16:53:00
1:53 PM,39.9,28.9,65,29.84,10.0,West,17.3,27.6,0.00,,Overcast,270,2013-04-19 17:53:00
2:53 PM,39.9,28.9,65,29.85,10.0,West,16.1,23.0,0.00,,Overcast,260,2013-04-19 18:53:00
3:53 PM,39.9,28.0,63,29.86,10.0,WSW,12.7,28.8,N/A,,Overcast,250,2013-04-19 19:53:00
4:53 PM,39.9,28.0,63,29.87,10.0,West,15.0,24.2,0.00,,Overcast,270,2013-04-19 20:53:00
5:53 PM,39.9,28.0,63,29.90,10.0,West,10.4,24.2,N/A,,Overcast,260,2013-04-19 21:53:00
6:53 PM,41.0,28.9,62,29.92,10.0,WSW,12.7,19.6,N/A,,Overcast,250,2013-04-19 22:53:00
7:53 PM,41.0,30.9,67,29.94,10.0,West,6.9,-,0.00,,Overcast,260,2013-04-19 23:53:00
8:19 PM,39.2,32.0,75,29.94,7.0,West,15.0,23.0,0.00,Rain,Light Rain,280,2013-04-20 00:19:00
8:40 PM,37.4,33.8,87,29.94,10.0,West,4.6,-,0.01,,Overcast,270,2013-04-20 00:40:00
8:53 PM,39.0,33.1,79,29.96,10.0,WSW,3.5,-,0.01,,Overcast,240,2013-04-20 00:53:00
9:53 PM,39.9,32.0,73,29.99,10.0,WSW,10.4,18.4,N/A,,Overcast,250,2013-04-20 01:53:00
10:53 PM,37.9,34.0,86,30.01,10.0,WSW,6.9,-,0.00,,Mostly Cloudy,250,2013-04-20 02:53:00
11:53 PM,37.9,33.1,83,30.02,10.0,West,5.8,-,N/A,,Scattered Clouds,270,2013-04-20 03:53:00